OBJECT D

Satellite information

Favourite Embed

Satellite Type and Status

UNKNOWNIN ORBIT

Key statistics

Satellite OBJECT D at a glance.

Uptime

16

Days in orbit

Revolutions

≈ 15.2

Per day

Orbit

SSO

Sun Synchronous Orbit

Inclination

97.7

Latest

Satellite identification and parameters

Extended collection of information and parameters for OBJECT D.

Object identification

Identified? True

Debris? False

Object name: OBJECT D

International designator: 2025-226D

Object number (NORAD): 65944

Object ID (CCSDS): 65944

Country: PEOPLES REPUBLIC OF CHINA (PRC)

Current information (Y/N): Y

Orbital parameters

Period: 94.954 minutes

Inclination: 97.6632 deg

SMA: 6894.485 km

Apoapsis: 529.465 km

Periapsis: 503.235 km

RAAN: 5.1263 deg

Eccentricy: 0.0019022

Argument of periapsis: 287.2735 deg

Mean anomaly: 72.6416 deg

Mean motion: 15.16526485 rev/day

Mean motion (dot): -0.00000071 rev/day2

B* drag term: 0.0 1/REarth

Two-line elements (TLE)

Creation date: Oct. 21, 2025, 2:56 p.m.

Reference frame: TEME

Reference center: EARTH

Epoch: Oct. 17, 2025, 10:42 p.m. UTC

TLE line 0: 0 OBJECT D

TLE line 1: 1 65944U 25226D 25290.94606692 -.00000071 00000-0 00000+0 0 9993

TLE line 2: 2 65944 97.6632 5.1263 0019022 287.2735 72.6416 15.16526485 1020

Live tracking on map

Real-time ground track for satellite OBJECT D.

In-orbit conjunctions

There are no conjunctions computed for OBJECT D, at the moment. Check back to stay up to date, as we update our databases every day.

Go to all conjunctions

Associated space launch

Carried 3 satellites to sun-synchronous orbit, including the Earth observation satellite Jilin-1 Wideband-02B-07. Details TBD.

OBJECT D was lifted into orbit during the mission ‘Gravity-1 | 3 satellites’, on board a Gravity-1 space rocket.

The launch took place on Oct. 11, 2025, 2:20 a.m. from Haiyang Spaceport.

For more information about the launch, click the button.

Launch to space Gravity-1 | 3 satellites
Gravity-1 | 3 satellites

Agency: N/A

Status: Launch Successful

Launch date: Oct. 11, 2025, 2:20 a.m. UTC

Rocket: Gravity-1

Launch pad: Haiyang Spaceport

Location: Sea Launch

...

Latest news about this satellite

News about space launch
Huge commercial Chinese solid rocket launches 3 satellites from barge in the Yellow Sea

Chinese launch startup Orienspace successfully conducted its second launch late Friday, with a Gravity-1 solid rocket lifting off from a barge in the Yellow Sea. The post Huge commercial Chinese solid rocket launches 3 satellites from barge in the Yellow...


Newsletter sign-up

Weekly statistics, charts and insights to help you stay on top of the space industry.